ONEWEB-0698, 61604

Orbit data source: Space-Track

ONEWEB-0698, 61604 is a payload satellite owned by Eut. One Web (UK) in LEO that was launched on Sun, 20 Oct 2024 UTC via an FALCON 9 launch vehicle from the Air Force Western Test Range (AFWTR). Payload-class satellites include a variety of spacecraft equipped with specific instruments for various scientific and technological missions. These include communications satellites like Starlink; space stations such as the ISS; scientific satellites like the Hubble; Earth observation satellites from companies like Planet Labs, Umbra, and HawkEye 360; GPS; miniature CubeSats for education and research; and military/defense satellites.

Loading next visibility...
Identifier
61604, 2024-188L
Orbit
LEO
Last TLE update
12 hours ago
Origin
Manufacturer
One Web
Mission
Operational Commercial Communications
Bus & Motor
ARROW, Unknown motor
Mass
148 kg wet, ~140 kg dry
Launch date (UTC)
2024-10-20 (8 months ago)
Launch vehicle
FALCON 9
Launch site
Air Force Western Test Range (AFWTR)
Object type
Payload
Rocket body
Debris
Shape & HBR
Trap Box + 2 Pan, 5 m
Radar Cross Section
2.032 m², Large (>1 m²)

Expand to show TLE details & history

TLE from 12 hours ago
0 ONEWEB-0698
1 61604U 24188L   25181.85601419 -.00000417  00000-0 -12112-2 0  9994
2 61604  87.8830  91.1305 0002992  85.6932 274.4538 13.11417261 38424
Epoch: 2025-06-30T20:32Z
TLE epoch observation values (Epoch: 2025-06-30T20:32:39.625Z)
Latitude
-0.00003°
Longitude
-136.19443°
Altitude
1,220.395 km
Speed
7.244 km/s
True Right ascension
06h 04m 31s
True Declination
0° 00' 00"
Sunlit
Object was in daylight at epoch
Visualization orbit readout
Latitude
10.70428°
Longitude
43.30881°
Altitude
1,219.62 km
Speed
7.245 km/s
Apparent Right ascension
15h 34m 05s
Apparent Declination
-33° 30' 05"
Sunlit
Object is in full shadow
Visualization observer readout
Local Sidereal Time
20:01:34
Azimuth
230.439° WSW
Elevation
-5.909°
Doppler factor
1
Orbital elements
Apogee altitude
1,217.072 km
Perigee altitude
1,212.528 km
Semi-major axis
7,592.937 km
Eccentricity
0.0003
Inclination
87.883°
RAAN
91.1305°
Arg. of periapsis
85.6932°
True anomaly
Unknown
Mean anomaly
274.4538°
Eccentric anomaly
Unknown
Mean motion
3.28041 °/min
Orbital period
109.74 mins
BSTAR
-0.0012112
Loading maneuver chart data...
Loading SW <> Apogee altitude chart data...
Loading historical data...
Loading historical data...
Loading historical data...
Loading historical data...
Loading historical data...
Loading historical data...
Loading historical data...

ONEWEB-0698 Visibility forecast

Observer location: undefined°, undefined°

Span
Click to sort rows by Start time (UTC) header in descending order
Start Az.
Max El. time (UTC)
Max El. Az.
Max El.
End time (UTC)
End Az.
8 mins2025-07-01 16:50:27.506Z107.577° ESE2025-07-01 16:54:27.506Z70.771° E17.85°2025-07-01 16:58:27.506Z35.702° NE
13 mins2025-07-01 18:37:27.506Z187.34° SSW2025-07-01 18:43:27.506Z289.285° WNW44.001°2025-07-01 18:50:27.506Z357.386° N
6 mins2025-07-02 04:19:27.506Z48.946° ENE2025-07-02 04:22:27.506Z75.217° E13.992°2025-07-02 04:25:27.506Z100.328° ESE
12 mins2025-07-02 06:07:27.506Z0.326° NNE2025-07-02 06:13:27.506Z169.279° S44.538°2025-07-02 06:19:27.506Z180.403° SSW
6 mins2025-07-02 07:59:27.506Z309.376° NW2025-07-02 08:01:27.506Z291.546° WNW14.959°2025-07-02 08:05:27.506Z257.26° W
|